McCarran International Airport Las Vegas US
ICAO: KLAS
IATA: LAS
Category: Large
Scheduled Services: Yes

Elevation: 2181 ft
TransAlt. 18000 ft.

Airport Communications:
LAS VEGAS APP:125.025
ATIS:132.4
CLNC DEL:118
LAS VEGAS DEP:125.02
GND:121.1
:119.9
UNICOM:122.95

KLAS Zoom In..

Runways:

(A) RW 01L length 8988 ft width 150 ft
ILS 110.10 / hdg 10

(B) RW 01R length 9771 ft width 150 ft
---- / hdg 10

(C) RW 07L length 14512 ft width 150 ft
---- / hdg 75

(D) RW 07R length 10525 ft width 150 ft
---- / hdg 75

(E) RW 19L length 9771 ft width 150 ft
---- / hdg 190

(F) RW 19R length 8988 ft width 150 ft
---- / hdg 190

(G) RW 25L length 10525 ft width 150 ft
ILS 111.75 / hdg 255

(H) RW 25R length 14512 ft width 150 ft
ILS 110.30 / hdg 255

Location; KLAS
Day. 21 / Time. 13.56 Zulu
* Altimeter: 29.73
* Temperature: 23° c. 73.4°f.
* Wind from: 170° Speed 07 kn.
Dewpoint: 04° c.
Visibility: 10 Statute Miles.
Clouds: Few 12000 ft.
Clouds: Overcast 15000 ft.

KLAS 211356Z 17007KT 130V200 10SM FEW120 OVC150 23/04 A2973 RMK AO2 SLP042 VIRGA S-NW T02280044


Wind From 170°
Speed 07 kn.

 
 
jpsmedia.com for Web Design SOUNDCLOUD worldairports.se 2018   terms of use